Lewistown, MT

11:12 PM MDT on October 19, 2017 (GMT -0600)
Lewistown Municipal

Weather History for KLWT - June, 2011

Change the Weather History Date:

Monday, June 20, 2011

  Actual Average Record
Temperature  
Mean Temperature 55 °F 59 °F  
Max Temperature 67 °F 72 °F 96 °F (1988)
Min Temperature 43 °F 46 °F 27 °F (1929)
Degree Days  
Heating Degree Days 10 7  
Month to date heating degree days 245 173  
Since 1 June heating degree days 245 173  
Since 1 July heating degree days 8981 8147  
Cooling Degree Days 0 1  
Month to date cooling degree days 0 6  
Year to date cooling degree days 0 8  
Since 1 June cooling degree days 0 6  
Growing Degree Days 5 (Base 50)    
Moisture  
Dew Point 46 °F    
Average Humidity 69    
Maximum Humidity 93    
Minimum Humidity 45    
Precipitation  
Precipitation 0.07 in 0.10 in 1.30 in (1903)
Month to date precipitation 3.73 2.21  
Year to date precipitation 16.11 8.47  
Snow  
Snow 0.00 in - - ()
Snow Depth 0.00 in    
Sea Level Pressure  
Sea Level Pressure 29.90 in    
Wind  
Wind Speed 6 mph (WSW)    
Max Wind Speed 20 mph    
Max Gust Speed 24 mph    
Visibility 9 miles    
Events Rain , Thunderstorm    
T = Trace of Precipitation, MM = Missing Value Source: NWS Daily Summary

Daily Weather History Graph

Daily Weather History Graph

Search for Another Location

Airport or City:

Trip Planner

Search our weather history database for the weather conditions in past years. The results will help you decide how hot, cold, wet, or windy it might be!

Date:

Astronomy

Jun. 20, 2011 Rise Set
Actual Time 5:22 AM MDT 9:16 PM MDT
Civil Twilight 4:42 AM MDT 9:56 PM MDT
Nautical Twilight 3:47 AM MDT 10:51 PM MDT
Astronomical Twilight 2:24 AM MDT 12:14 AM MDT
Moon No Moon Rise 10:43 AM MDT
Length of Visible Light 17h 14m
Length of Day
15h 54m
Waning Gibbous, 75% of the Moon is Illuminated
Jun 20
Waning Gibbous
Jun 23
Last Quarter
Jul 1
New
Jul 8
First Quarter
Jul 15
Full

Hourly Weather History & Observations

Time (MDT) Temp. Windchill Dew Point Humidity Pressure Visibility Wind Dir Wind Speed Gust Speed Precip Events Conditions
12:54 AM 46.0 °F 43.9 °F 44.1 °F 93% 29.85 in - SSW 4.6 mph - N/A   Clear
1:54 AM 45.0 °F 43.5 °F 43.0 °F 93% 29.84 in - East 3.5 mph - N/A   Clear
2:54 AM 50.0 °F - 44.1 °F 80% 29.83 in - WNW 3.5 mph - N/A   Clear
3:54 AM 44.1 °F 40.1 °F 42.1 °F 93% 29.85 in - SW 6.9 mph - N/A   Clear
4:54 AM 45.0 °F 41.2 °F 42.1 °F 90% 29.86 in - SSW 6.9 mph - N/A   Clear
5:54 AM 45.0 °F - 42.1 °F 90% 29.88 in - Calm Calm - N/A   Overcast
6:54 AM 48.9 °F - 45.0 °F 86% 29.87 in - Calm Calm - N/A   Partly Cloudy
7:54 AM 54.0 °F - 46.0 °F 75% 29.87 in - Calm Calm - N/A   Partly Cloudy
9:54 AM 59.0 °F - 44.1 °F 58% 29.88 in - West 6.9 mph - N/A   Clear
10:54 AM 61.0 °F - 44.1 °F 54% 29.88 in - WNW 8.1 mph - N/A   Overcast
11:54 AM 61.0 °F - 43.0 °F 52% 29.89 in - WNW 8.1 mph - N/A   Overcast
12:54 PM 63.0 °F - 45.0 °F 52% 29.89 in 10.0 mi NW 4.6 mph - N/A   Overcast
2:54 PM 64.9 °F - 45.0 °F 48% 29.88 in 10.0 mi West 8.1 mph - N/A   Mostly Cloudy
3:54 PM 64.0 °F - 46.0 °F 52% 29.90 in 10.0 mi WNW 13.8 mph - N/A   Mostly Cloudy
4:54 PM 66.0 °F - 45.0 °F 47% 29.88 in 10.0 mi NW 4.6 mph - N/A   Partly Cloudy
5:54 PM 66.9 °F - 46.0 °F 47% 29.88 in 10.0 mi NNW 8.1 mph - N/A   Scattered Clouds
6:06 PM 64.4 °F - 48.2 °F 56% 29.93 in 10.0 mi NW 4.6 mph - N/A Thunderstorm Mostly Cloudy
6:21 PM 64.4 °F - 46.4 °F 52% 29.93 in 10.0 mi WNW 3.5 mph - N/A   Mostly Cloudy
6:54 PM 55.9 °F - 48.9 °F 77% 29.92 in 10.0 mi WSW 15.0 mph - 0.00 in Rain Light Rain
7:15 PM 55.4 °F - 46.4 °F 72% 29.98 in 3.0 mi WNW 9.2 mph 20.7 mph 0.06 in Rain Rain
7:19 PM 55.4 °F - 46.4 °F 72% 29.97 in 2.0 mi Calm Calm - 0.07 in Rain Heavy Rain
7:26 PM 55.4 °F - 48.2 °F 77% 29.96 in 4.0 mi SSE 3.5 mph - 0.07 in Rain Light Rain
7:54 PM 55.9 °F - 50.0 °F 80% 29.92 in 10.0 mi SE 5.8 mph - 0.07 in   Overcast
8:54 PM 54.0 °F - 50.0 °F 86% 29.92 in 10.0 mi SE 5.8 mph - N/A   Mostly Cloudy
9:54 PM 51.1 °F - 48.9 °F 92% 29.93 in 10.0 mi SE 5.8 mph - N/A   Partly Cloudy
10:54 PM 48.9 °F - 46.0 °F 90% 29.92 in 10.0 mi SSE 5.8 mph - N/A   Clear
11:54 PM 46.9 °F - 45.0 °F 93% 29.93 in 10.0 mi ESE 5.8 mph - N/A   Clear